Time,TemperatureF,DewpointF,PressureIn,WindDirection,WindDirectionDegrees,WindSpeedMPH,WindSpeedGustMPH,Humidity,HourlyPrecipIn,Conditions,Clouds,dailyrainin,SoftwareType,DateUTC
2014-01-26 00:01:00,12.4,2.1,29.93,WSW,256,2.0,6.0,63,0.00,,,0.00,meteobridge,2014-01-26 05:01:00,
2014-01-26 00:02:00,12.4,2.1,29.93,South,177,2.0,4.0,63,0.00,,,0.00,meteobridge,2014-01-26 05:02:00,
2014-01-26 00:07:00,12.0,1.8,29.94,West,262,2.9,4.0,63,0.00,,,0.00,meteobridge,2014-01-26 05:07:00,
2014-01-26 00:12:00,12.0,2.1,29.94,SW,229,2.0,2.9,64,0.00,,,0.00,meteobridge,2014-01-26 05:12:00,
2014-01-26 00:18:00,11.7,1.6,29.94,NE,38,0.0,2.0,63,0.00,,,0.00,meteobridge,2014-01-26 05:18:00,
2014-01-26 00:23:00,10.0,-0.4,29.93,North,354,0.9,0.9,62,0.00,,,0.00,meteobridge,2014-01-26 05:23:00,
2014-01-26 00:28:00,7.3,-2.0,29.93,North,11,2.0,2.9,65,0.00,,,0.00,meteobridge,2014-01-26 05:28:00,
2014-01-26 00:33:00,6.1,-1.8,29.93,NNE,13,0.0,0.9,69,0.00,,,0.00,meteobridge,2014-01-26 05:33:00,
2014-01-26 00:38:00,4.8,-2.6,29.93,NNE,12,0.0,0.0,71,0.00,,,0.00,meteobridge,2014-01-26 05:38:00,
2014-01-26 00:43:00,4.3,-2.2,29.93,North,5,2.0,2.9,74,0.00,,,0.00,meteobridge,2014-01-26 05:43:00,
2014-01-26 00:48:00,3.7,-2.2,29.94,NE,47,0.9,2.0,76,0.00,,,0.00,meteobridge,2014-01-26 05:48:00,
2014-01-26 00:54:00,3.0,-2.7,29.95,SSW,208,0.9,0.9,76,0.00,,,0.00,meteobridge,2014-01-26 05:54:00,
2014-01-26 00:59:00,3.4,-1.8,29.95,NNW,328,0.0,2.0,78,0.00,,,0.00,meteobridge,2014-01-26 05:59:00,
2014-01-26 01:04:00,3.4,-1.7,29.95,SW,214,0.0,0.9,79,0.00,,,0.00,meteobridge,2014-01-26 06:04:00,
2014-01-26 01:09:00,2.8,-2.2,29.95,SW,217,0.0,0.9,79,0.00,,,0.00,meteobridge,2014-01-26 06:09:00,
2014-01-26 01:14:00,2.5,-2.7,29.95,SSE,156,0.0,0.0,78,0.00,,,0.00,meteobridge,2014-01-26 06:14:00,
2014-01-26 01:19:00,1.4,-3.8,29.95,SSE,156,0.0,0.0,78,0.00,,,0.00,meteobridge,2014-01-26 06:19:00,
2014-01-26 01:24:00,1.0,-4.0,29.94,ESE,109,0.0,0.9,79,0.00,,,0.00,meteobridge,2014-01-26 06:24:00,
2014-01-26 01:29:00,0.3,-4.7,29.95,WSW,242,2.0,2.0,79,0.00,,,0.00,meteobridge,2014-01-26 06:29:00,
2014-01-26 01:34:00,0.1,-4.4,29.95,SSE,165,0.0,0.0,81,0.00,,,0.00,meteobridge,2014-01-26 06:34:00,
2014-01-26 01:39:00,0.3,-3.8,29.94,SSE,166,0.0,0.0,82,0.00,,,0.00,meteobridge,2014-01-26 06:39:00,
2014-01-26 01:44:00,0.3,-3.8,29.94,WSW,239,0.0,2.0,82,0.00,,,0.00,meteobridge,2014-01-26 06:44:00,
2014-01-26 01:50:00,0.7,-3.3,29.94,SW,230,0.0,0.0,83,0.00,,,0.00,meteobridge,2014-01-26 06:50:00,
2014-01-26 01:55:00,0.5,-3.5,29.94,West,260,0.0,0.0,83,0.00,,,0.00,meteobridge,2014-01-26 06:55:00,
2014-01-26 02:00:00,0.1,-4.0,29.95,West,260,0.0,0.0,82,0.00,,,0.00,meteobridge,2014-01-26 07:00:00,
2014-01-26 02:05:00,0.0,-4.0,29.95,NNE,18,0.0,0.0,83,0.00,,,0.00,meteobridge,2014-01-26 07:05:00,
2014-01-26 02:11:00,-0.4,-4.5,29.94,NNE,18,0.0,0.0,82,0.00,,,0.00,meteobridge,2014-01-26 07:11:00,
2014-01-26 02:16:00,-0.8,-4.9,29.95,NNE,18,0.0,0.0,82,0.00,,,0.00,meteobridge,2014-01-26 07:16:00,
2014-01-26 02:21:00,-0.6,-4.2,29.94,NNE,18,0.0,0.0,84,0.00,,,0.00,meteobridge,2014-01-26 07:21:00,
2014-01-26 02:27:00,0.0,-3.5,29.94,SSE,159,0.0,0.0,85,0.00,,,0.00,meteobridge,2014-01-26 07:27:00,
2014-01-26 02:32:00,0.5,-2.9,29.94,North,353,0.9,2.0,85,0.00,,,0.00,meteobridge,2014-01-26 07:32:00,
2014-01-26 02:37:00,1.0,-2.2,29.94,North,7,0.0,0.9,86,0.00,,,0.00,meteobridge,2014-01-26 07:37:00,
2014-01-26 02:42:00,1.2,-2.2,29.93,NNE,18,0.0,0.9,85,0.00,,,0.00,meteobridge,2014-01-26 07:42:00,
2014-01-26 02:48:00,1.4,-2.0,29.93,NNE,19,0.0,0.0,85,0.00,,,0.00,meteobridge,2014-01-26 07:48:00,
2014-01-26 02:53:00,1.6,-1.8,29.93,NNE,19,0.0,0.0,85,0.00,,,0.00,meteobridge,2014-01-26 07:53:00,
2014-01-26 02:58:00,1.6,-1.8,29.93,NNE,19,0.0,0.0,85,0.00,,,0.00,meteobridge,2014-01-26 07:58:00,
2014-01-26 03:03:00,1.8,-1.7,29.92,NNE,19,0.0,0.0,85,0.00,,,0.00,meteobridge,2014-01-26 08:03:00,
2014-01-26 03:08:00,1.8,-1.7,29.92,NNW,347,0.9,2.0,85,0.00,,,0.00,meteobridge,2014-01-26 08:08:00,
2014-01-26 03:13:00,1.9,-1.5,29.93,North,8,0.0,0.9,85,0.00,,,0.00,meteobridge,2014-01-26 08:13:00,
2014-01-26 03:18:00,2.1,-1.3,29.93,North,7,0.0,0.0,85,0.00,,,0.00,meteobridge,2014-01-26 08:18:00,
2014-01-26 03:23:00,2.1,-1.3,29.93,North,7,0.0,0.0,85,0.00,,,0.00,meteobridge,2014-01-26 08:23:00,
2014-01-26 03:29:00,2.5,-0.9,29.93,North,5,0.0,0.0,85,0.00,,,0.00,meteobridge,2014-01-26 08:29:00,
2014-01-26 03:34:00,2.7,-0.8,29.93,WNW,282,0.0,2.0,85,0.00,,,0.00,meteobridge,2014-01-26 08:34:00,
2014-01-26 03:39:00,2.8,-0.9,29.92,NNE,21,0.0,0.9,84,0.00,,,0.00,meteobridge,2014-01-26 08:39:00,
2014-01-26 03:44:00,2.8,-0.9,29.92,NNE,21,0.0,0.0,84,0.00,,,0.00,meteobridge,2014-01-26 08:44:00,
2014-01-26 03:49:00,3.0,-0.8,29.92,NNE,30,0.0,0.0,84,0.00,,,0.00,meteobridge,2014-01-26 08:49:00,
2014-01-26 03:55:00,3.6,-0.2,29.91,NNE,30,0.0,0.0,84,0.00,,,0.00,meteobridge,2014-01-26 08:55:00,
2014-01-26 04:00:00,3.7,0.0,29.91,NW,308,0.0,0.0,84,0.00,,,0.00,meteobridge,2014-01-26 09:00:00,
2014-01-26 04:05:00,3.9,0.0,29.89,NNW,342,0.9,0.9,83,0.00,,,0.00,meteobridge,2014-01-26 09:05:00,
2014-01-26 04:10:00,4.1,0.1,29.89,NNE,13,0.0,2.0,83,0.00,,,0.00,meteobridge,2014-01-26 09:10:00,
2014-01-26 04:15:00,4.1,0.1,29.89,NNE,13,0.0,0.0,83,0.00,,,0.00,meteobridge,2014-01-26 09:15:00,
2014-01-26 04:20:00,4.3,0.3,29.89,NNE,13,0.0,0.0,83,0.00,,,0.00,meteobridge,2014-01-26 09:20:00,
2014-01-26 04:25:00,4.3,0.0,29.89,NNE,13,0.0,0.0,82,0.00,,,0.00,meteobridge,2014-01-26 09:25:00,
2014-01-26 04:31:00,4.3,0.0,29.90,NNE,13,0.0,0.0,82,0.00,,,0.00,meteobridge,2014-01-26 09:31:00,
2014-01-26 04:36:00,4.6,0.7,29.89,NNE,13,0.0,0.0,83,0.00,,,0.00,meteobridge,2014-01-26 09:36:00,
2014-01-26 04:41:00,4.8,0.9,29.88,NNE,19,0.0,0.9,83,0.00,,,0.00,meteobridge,2014-01-26 09:41:00,
2014-01-26 04:46:00,5.2,1.2,29.87,NNE,18,0.0,0.0,83,0.00,,,0.00,meteobridge,2014-01-26 09:46:00,
2014-01-26 04:51:00,5.4,1.0,29.86,NNE,18,0.0,0.9,82,0.00,,,0.00,meteobridge,2014-01-26 09:51:00,
2014-01-26 04:56:00,5.5,1.2,29.86,NNE,18,0.0,0.0,82,0.00,,,0.00,meteobridge,2014-01-26 09:56:00,
2014-01-26 05:02:00,5.4,1.0,29.85,NNE,23,0.0,0.0,82,0.00,,,0.00,meteobridge,2014-01-26 10:02:00,
2014-01-26 05:06:00,5.5,1.2,29.85,WSW,247,0.9,0.9,82,0.00,,,0.00,meteobridge,2014-01-26 10:06:00,
2014-01-26 05:12:00,5.5,1.0,29.85,WSW,255,0.0,0.0,81,0.00,,,0.00,meteobridge,2014-01-26 10:12:00,
2014-01-26 05:17:00,5.4,0.9,29.84,SSW,210,0.0,0.0,81,0.00,,,0.00,meteobridge,2014-01-26 10:17:00,
2014-01-26 05:22:00,5.4,1.0,29.83,East,90,0.0,0.9,82,0.00,,,0.00,meteobridge,2014-01-26 10:22:00,
2014-01-26 05:27:00,5.4,1.0,29.83,ESE,117,0.0,0.9,82,0.00,,,0.00,meteobridge,2014-01-26 10:27:00,
2014-01-26 05:32:00,5.4,1.0,29.83,ESE,113,0.0,0.0,82,0.00,,,0.00,meteobridge,2014-01-26 10:32:00,
2014-01-26 05:37:00,5.2,0.9,29.82,ESE,122,0.0,0.0,82,0.00,,,0.00,meteobridge,2014-01-26 10:37:00,
2014-01-26 05:42:00,5.4,1.0,29.81,South,177,0.9,0.9,82,0.00,,,0.00,meteobridge,2014-01-26 10:42:00,
2014-01-26 05:47:00,5.5,1.6,29.81,South,177,0.0,0.0,83,0.00,,,0.00,meteobridge,2014-01-26 10:47:00,
2014-01-26 05:52:00,6.1,2.3,29.81,WNW,297,2.0,2.9,84,0.00,,,0.00,meteobridge,2014-01-26 10:52:00,
2014-01-26 05:57:00,7.0,2.8,29.81,WNW,287,0.9,2.0,83,0.00,,,0.00,meteobridge,2014-01-26 10:57:00,
2014-01-26 06:02:00,7.3,3.2,29.81,WNW,282,0.0,2.0,83,0.00,,,0.00,meteobridge,2014-01-26 11:02:00,
2014-01-26 06:07:00,7.5,3.2,29.81,West,277,0.9,0.9,82,0.00,,,0.00,meteobridge,2014-01-26 11:07:00,
2014-01-26 06:13:00,7.9,3.6,29.81,SW,228,0.0,2.0,82,0.00,,,0.00,meteobridge,2014-01-26 11:13:00,
2014-01-26 06:18:00,8.2,3.9,29.80,SW,225,0.0,0.0,82,0.00,,,0.00,meteobridge,2014-01-26 11:18:00,
2014-01-26 06:23:00,8.4,4.1,29.79,SW,216,0.0,0.9,82,0.00,,,0.00,meteobridge,2014-01-26 11:23:00,
2014-01-26 06:28:00,9.0,4.6,29.79,West,271,0.9,2.0,82,0.00,,,0.00,meteobridge,2014-01-26 11:28:00,
2014-01-26 06:33:00,9.7,5.0,29.79,WSW,250,0.0,0.9,81,0.00,,,0.00,meteobridge,2014-01-26 11:33:00,
2014-01-26 06:38:00,10.2,5.4,29.78,West,267,0.0,0.0,80,0.00,,,0.00,meteobridge,2014-01-26 11:38:00,
2014-01-26 06:43:00,10.8,5.9,29.78,North,8,0.9,0.9,80,0.00,,,0.00,meteobridge,2014-01-26 11:43:00,
2014-01-26 06:48:00,11.1,5.9,29.78,North,11,0.9,4.0,79,0.00,,,0.00,meteobridge,2014-01-26 11:48:00,
2014-01-26 06:53:00,11.7,6.4,29.78,NNE,14,0.0,0.9,79,0.00,,,0.00,meteobridge,2014-01-26 11:53:00,
2014-01-26 06:58:00,11.8,6.3,29.77,SW,228,0.0,0.9,78,0.00,,,0.00,meteobridge,2014-01-26 11:58:00,
2014-01-26 07:03:00,12.4,6.8,29.77,SE,126,0.0,0.0,78,0.00,,,0.00,meteobridge,2014-01-26 12:03:00,
2014-01-26 07:08:00,13.3,6.8,29.75,ESE,118,0.9,4.9,75,0.00,,,0.00,meteobridge,2014-01-26 12:08:00,
2014-01-26 07:13:00,14.2,7.2,29.75,NE,55,0.9,2.9,73,0.00,,,0.00,meteobridge,2014-01-26 12:13:00,
2014-01-26 07:18:00,14.7,6.8,29.74,SE,145,2.9,6.0,70,0.00,,,0.00,meteobridge,2014-01-26 12:18:00,
2014-01-26 07:23:00,15.1,6.8,29.72,SSE,152,0.9,4.9,69,0.00,,,0.00,meteobridge,2014-01-26 12:23:00,
2014-01-26 07:29:00,15.4,6.4,29.71,North,8,4.9,11.0,67,0.00,,,0.00,meteobridge,2014-01-26 12:29:00,
2014-01-26 07:34:00,15.6,6.3,29.70,SSE,152,6.0,11.0,66,0.00,,,0.00,meteobridge,2014-01-26 12:34:00,
2014-01-26 07:39:00,16.2,6.8,29.69,North,358,4.9,6.0,66,0.00,,,0.00,meteobridge,2014-01-26 12:39:00,
2014-01-26 07:44:00,16.5,6.8,29.69,SSE,149,4.9,10.1,65,0.00,,,0.00,meteobridge,2014-01-26 12:44:00,
2014-01-26 07:49:00,16.9,6.8,29.68,SE,135,0.9,0.9,64,0.00,,,0.00,meteobridge,2014-01-26 12:49:00,
2014-01-26 07:54:00,17.1,6.6,29.68,ENE,75,2.9,4.9,63,0.00,,,0.00,meteobridge,2014-01-26 12:54:00,
2014-01-26 07:59:00,17.2,6.4,29.68,ESE,120,4.0,6.9,62,0.00,,,0.00,meteobridge,2014-01-26 12:59:00,
2014-01-26 08:04:00,17.8,7.0,29.68,SE,124,0.9,4.0,62,0.00,,,0.00,meteobridge,2014-01-26 13:04:00,
2014-01-26 08:09:00,17.8,6.3,29.68,SE,136,4.0,6.0,60,0.00,,,0.00,meteobridge,2014-01-26 13:09:00,
2014-01-26 08:14:00,18.1,6.6,29.69,North,11,6.0,6.0,60,0.00,,,0.00,meteobridge,2014-01-26 13:14:00,
2014-01-26 08:19:00,18.3,6.8,29.68,ENE,62,2.9,6.0,60,0.00,,,0.00,meteobridge,2014-01-26 13:19:00,
2014-01-26 08:24:00,18.5,6.3,29.68,ENE,65,2.0,4.0,58,0.00,,,0.00,meteobridge,2014-01-26 13:24:00,
2014-01-26 08:29:00,18.7,6.4,29.68,East,89,0.9,2.9,58,0.00,,,0.00,meteobridge,2014-01-26 13:29:00,
2014-01-26 08:34:00,18.9,6.1,29.68,SE,136,2.0,6.0,57,0.00,,,0.00,meteobridge,2014-01-26 13:34:00,
2014-01-26 08:39:00,19.0,6.6,29.67,NE,34,4.0,4.0,58,0.00,,,0.00,meteobridge,2014-01-26 13:39:00,
2014-01-26 08:44:00,19.4,6.6,29.67,East,100,2.0,8.9,57,0.00,,,0.00,meteobridge,2014-01-26 13:44:00,
2014-01-26 08:49:00,19.6,6.8,29.67,SSE,147,2.0,4.9,57,0.00,,,0.00,meteobridge,2014-01-26 13:49:00,
2014-01-26 08:54:00,19.8,7.3,29.67,ENE,75,2.9,4.0,58,0.00,,,0.00,meteobridge,2014-01-26 13:54:00,
2014-01-26 08:59:00,20.1,7.3,29.67,SE,124,0.0,4.9,57,0.00,,,0.00,meteobridge,2014-01-26 13:59:00,
2014-01-26 09:04:00,20.3,7.5,29.66,ESE,107,2.0,2.9,57,0.00,,,0.00,meteobridge,2014-01-26 14:04:00,
2014-01-26 09:09:00,20.7,7.9,29.66,ESE,107,0.0,2.9,57,0.00,,,0.00,meteobridge,2014-01-26 14:09:00,
2014-01-26 09:14:00,20.8,8.1,29.66,East,83,0.9,2.0,57,0.00,,,0.00,meteobridge,2014-01-26 14:14:00,
2014-01-26 09:19:00,21.0,9.0,29.66,ENE,76,2.9,4.0,59,0.00,,,0.00,meteobridge,2014-01-26 14:19:00,
2014-01-26 09:25:00,21.4,8.6,29.66,NNE,26,2.9,4.0,57,0.00,,,0.00,meteobridge,2014-01-26 14:25:00,
2014-01-26 09:30:00,21.6,9.1,29.65,East,80,2.9,6.9,58,0.00,,,0.00,meteobridge,2014-01-26 14:30:00,
2014-01-26 09:35:00,21.7,9.3,29.65,ENE,72,0.9,4.9,58,0.00,,,0.00,meteobridge,2014-01-26 14:35:00,
2014-01-26 09:40:00,21.7,9.3,29.65,NE,39,0.9,4.9,58,0.00,,,0.00,meteobridge,2014-01-26 14:40:00,
2014-01-26 09:45:00,21.9,9.0,29.66,SSW,203,0.0,0.9,57,0.00,,,0.00,meteobridge,2014-01-26 14:45:00,
2014-01-26 09:50:00,22.5,9.5,29.66,ENE,68,2.9,2.9,57,0.00,,,0.00,meteobridge,2014-01-26 14:50:00,
2014-01-26 09:55:00,22.5,8.2,29.66,ENE,78,2.9,4.0,54,0.00,,,0.00,meteobridge,2014-01-26 14:55:00,
2014-01-26 10:00:00,22.5,9.9,29.66,West,261,2.0,2.9,58,0.00,,,0.00,meteobridge,2014-01-26 15:00:00,
2014-01-26 10:05:00,22.8,9.1,29.66,WNW,284,2.9,6.0,55,0.00,,,0.00,meteobridge,2014-01-26 15:05:00,
2014-01-26 10:10:00,23.5,9.3,29.66,NNE,26,0.0,2.9,54,0.00,,,0.00,meteobridge,2014-01-26 15:10:00,
2014-01-26 10:15:00,24.1,9.9,29.66,SSE,163,0.9,2.0,54,0.00,,,0.00,meteobridge,2014-01-26 15:15:00,
2014-01-26 10:20:00,24.4,10.6,29.65,SE,143,0.0,2.0,55,0.00,,,0.00,meteobridge,2014-01-26 15:20:00,
2014-01-26 10:25:00,25.0,11.1,29.65,NE,55,0.0,0.9,55,0.00,,,0.00,meteobridge,2014-01-26 15:25:00,
2014-01-26 10:30:00,25.5,11.1,29.65,WSW,242,0.9,2.9,54,0.00,,,0.00,meteobridge,2014-01-26 15:30:00,
2014-01-26 10:35:00,26.1,11.3,29.65,SSE,163,0.0,2.0,53,0.00,,,0.00,meteobridge,2014-01-26 15:35:00,
2014-01-26 10:40:00,26.4,11.1,29.65,ENE,62,0.9,4.0,52,0.00,,,0.00,meteobridge,2014-01-26 15:40:00,
2014-01-26 10:45:00,27.0,11.7,29.65,SSW,203,0.9,2.0,52,0.00,,,0.00,meteobridge,2014-01-26 15:45:00,
2014-01-26 10:50:00,27.7,11.5,29.65,SE,140,4.9,4.9,50,0.00,,,0.00,meteobridge,2014-01-26 15:50:00,
2014-01-26 10:56:00,28.0,11.8,29.65,SSE,149,2.9,4.0,50,0.00,,,0.00,meteobridge,2014-01-26 15:56:00,
2014-01-26 11:01:00,28.4,11.7,29.65,SW,236,2.0,2.9,49,0.00,,,0.00,meteobridge,2014-01-26 16:01:00,
2014-01-26 11:06:00,28.8,11.5,29.64,WNW,295,2.0,6.0,48,0.00,,,0.00,meteobridge,2014-01-26 16:06:00,
2014-01-26 11:11:00,28.9,11.7,29.64,SE,138,0.9,4.9,48,0.00,,,0.00,meteobridge,2014-01-26 16:11:00,
2014-01-26 11:16:00,29.8,12.6,29.64,West,261,2.0,4.9,48,0.00,,,0.00,meteobridge,2014-01-26 16:16:00,
2014-01-26 11:21:00,30.6,12.7,29.63,WSW,245,6.0,6.9,47,0.00,,,0.00,meteobridge,2014-01-26 16:21:00,
2014-01-26 11:26:00,30.9,12.0,29.63,SW,225,4.9,8.1,45,0.00,,,0.00,meteobridge,2014-01-26 16:26:00,
2014-01-26 11:31:00,31.3,13.5,29.62,South,170,4.0,8.1,47,0.00,,,0.00,meteobridge,2014-01-26 16:31:00,
2014-01-26 11:36:00,31.6,13.6,29.62,SSW,193,2.9,8.9,47,0.00,,,0.00,meteobridge,2014-01-26 16:36:00,
2014-01-26 11:41:00,32.2,13.3,29.62,SW,214,4.9,13.0,45,0.00,,,0.00,meteobridge,2014-01-26 16:41:00,
2014-01-26 11:46:00,32.5,14.0,29.61,SSE,149,4.0,8.1,46,0.00,,,0.00,meteobridge,2014-01-26 16:46:00,
2014-01-26 11:51:00,32.9,14.4,29.61,West,271,8.9,11.0,46,0.00,,,0.00,meteobridge,2014-01-26 16:51:00,
2014-01-26 11:56:00,33.1,14.5,29.60,South,190,0.9,8.1,46,0.00,,,0.00,meteobridge,2014-01-26 16:56:00,
2014-01-26 12:01:00,33.4,14.9,29.60,NNW,327,2.0,12.1,46,0.00,,,0.00,meteobridge,2014-01-26 17:01:00,
2014-01-26 12:06:00,33.8,15.3,29.59,SSE,150,2.9,13.0,46,0.00,,,0.00,meteobridge,2014-01-26 17:06:00,
2014-01-26 12:11:00,34.2,16.0,29.59,WNW,284,2.0,4.9,47,0.00,,,0.00,meteobridge,2014-01-26 17:11:00,
2014-01-26 12:16:00,34.5,16.3,29.59,SSE,163,6.0,6.9,47,0.00,,,0.00,meteobridge,2014-01-26 17:16:00,
2014-01-26 12:21:00,35.1,16.3,29.58,WSW,249,6.9,10.1,46,0.00,,,0.00,meteobridge,2014-01-26 17:21:00,
2014-01-26 12:26:00,35.4,17.2,29.58,NNW,331,0.9,4.0,47,0.00,,,0.00,meteobridge,2014-01-26 17:26:00,
2014-01-26 12:31:00,36.0,17.6,29.58,SW,223,2.9,8.1,47,0.00,,,0.00,meteobridge,2014-01-26 17:31:00,
2014-01-26 12:36:00,36.3,18.0,29.58,SSW,211,2.9,4.9,47,0.00,,,0.00,meteobridge,2014-01-26 17:36:00,
2014-01-26 12:41:00,36.7,18.9,29.58,NW,314,6.0,6.9,48,0.00,,,0.00,meteobridge,2014-01-26 17:41:00,
2014-01-26 12:47:00,37.0,18.7,29.57,SSE,165,10.1,10.1,47,0.00,,,0.00,meteobridge,2014-01-26 17:47:00,
2014-01-26 12:52:00,37.4,19.6,29.57,SW,230,4.0,8.1,48,0.00,,,0.00,meteobridge,2014-01-26 17:52:00,
2014-01-26 12:57:00,37.8,19.8,29.56,SW,215,2.0,8.1,48,0.00,,,0.00,meteobridge,2014-01-26 17:57:00,
2014-01-26 13:02:00,38.1,20.1,29.56,SSE,165,4.0,12.1,48,0.00,,,0.00,meteobridge,2014-01-26 18:02:00,
2014-01-26 13:07:00,38.5,20.5,29.56,SSW,204,6.9,15.0,48,0.00,,,0.00,meteobridge,2014-01-26 18:07:00,
2014-01-26 13:12:00,38.8,20.8,29.56,WNW,283,6.9,8.9,48,0.00,,,0.00,meteobridge,2014-01-26 18:12:00,
2014-01-26 13:17:00,39.2,21.2,29.56,WSW,256,6.0,14.1,48,0.00,,,0.00,meteobridge,2014-01-26 18:17:00,
2014-01-26 13:22:00,39.6,21.6,29.56,WNW,302,2.9,6.9,48,0.00,,,0.00,meteobridge,2014-01-26 18:22:00,
2014-01-26 13:27:00,39.9,22.8,29.56,SSE,165,0.9,6.0,50,0.00,,,0.00,meteobridge,2014-01-26 18:27:00,
2014-01-26 13:32:00,40.5,22.3,29.55,SSW,195,10.1,14.1,48,0.00,,,0.00,meteobridge,2014-01-26 18:32:00,
2014-01-26 13:37:00,40.6,23.0,29.56,SSW,210,2.0,2.9,49,0.00,,,0.00,meteobridge,2014-01-26 18:37:00,
2014-01-26 13:42:00,41.2,22.5,29.56,WSW,252,4.0,6.9,47,0.00,,,0.00,meteobridge,2014-01-26 18:42:00,
2014-01-26 13:47:00,41.4,23.2,29.55,SSW,193,10.1,13.0,48,0.00,,,0.00,meteobridge,2014-01-26 18:47:00,
2014-01-26 13:52:00,41.5,23.4,29.55,West,262,2.0,11.0,48,0.00,,,0.00,meteobridge,2014-01-26 18:52:00,
2014-01-26 13:57:00,41.9,24.1,29.56,East,93,0.9,4.0,49,0.00,,,0.00,meteobridge,2014-01-26 18:57:00,
2014-01-26 14:02:00,42.3,24.4,29.56,West,276,6.9,13.0,49,0.01,,,0.01,meteobridge,2014-01-26 19:02:00,
2014-01-26 14:07:00,42.6,24.8,29.56,West,269,10.1,14.1,49,0.01,,,0.01,meteobridge,2014-01-26 19:07:00,
2014-01-26 14:12:00,42.8,25.5,29.55,SW,218,10.1,15.0,50,0.01,,,0.01,meteobridge,2014-01-26 19:12:00,
2014-01-26 14:17:00,43.2,25.7,29.55,SW,219,6.9,6.9,50,0.01,,,0.01,meteobridge,2014-01-26 19:17:00,
2014-01-26 14:22:00,43.3,25.5,29.54,WSW,239,10.1,15.0,49,0.01,,,0.01,meteobridge,2014-01-26 19:22:00,
2014-01-26 14:27:00,43.3,25.9,29.55,SSW,201,15.0,17.0,50,0.01,,,0.01,meteobridge,2014-01-26 19:27:00,
2014-01-26 14:32:00,43.5,26.1,29.54,WSW,255,8.1,8.1,50,0.01,,,0.01,meteobridge,2014-01-26 19:32:00,
2014-01-26 14:38:00,43.7,26.2,29.54,SW,215,4.9,6.9,50,0.01,,,0.01,meteobridge,2014-01-26 19:38:00,
2014-01-26 14:43:00,43.9,27.0,29.54,WSW,255,4.0,11.0,51,0.01,,,0.01,meteobridge,2014-01-26 19:43:00,
2014-01-26 14:48:00,44.2,27.3,29.54,SW,228,4.9,8.9,51,0.01,,,0.01,meteobridge,2014-01-26 19:48:00,
2014-01-26 14:53:00,44.4,27.9,29.53,West,259,4.9,12.1,52,0.01,,,0.01,meteobridge,2014-01-26 19:53:00,
2014-01-26 14:58:00,44.8,28.2,29.53,West,264,11.0,12.1,52,0.01,,,0.01,meteobridge,2014-01-26 19:58:00,
2014-01-26 15:03:00,44.8,27.7,29.53,SW,236,8.9,10.1,51,0.00,,,0.01,meteobridge,2014-01-26 20:03:00,
2014-01-26 15:08:00,45.0,28.9,29.53,WSW,245,4.0,11.0,53,0.00,,,0.01,meteobridge,2014-01-26 20:08:00,
2014-01-26 15:13:00,45.0,28.4,29.52,WSW,250,12.1,15.0,52,0.00,,,0.01,meteobridge,2014-01-26 20:13:00,
2014-01-26 15:18:00,45.1,28.6,29.53,West,263,0.9,6.9,52,0.00,,,0.01,meteobridge,2014-01-26 20:18:00,
2014-01-26 15:23:00,45.3,28.8,29.52,WSW,252,10.1,13.0,52,0.00,,,0.01,meteobridge,2014-01-26 20:23:00,
2014-01-26 15:28:00,45.7,29.1,29.52,SW,236,6.0,17.0,52,0.00,,,0.01,meteobridge,2014-01-26 20:28:00,
2014-01-26 15:33:00,45.9,29.7,29.52,West,269,2.9,8.1,53,0.00,,,0.01,meteobridge,2014-01-26 20:33:00,
2014-01-26 15:38:00,46.2,29.1,29.53,SW,235,11.0,16.1,51,0.00,,,0.01,meteobridge,2014-01-26 20:38:00,
2014-01-26 15:43:00,46.0,28.9,29.53,SW,235,8.1,17.9,51,0.00,,,0.01,meteobridge,2014-01-26 20:43:00,
2014-01-26 15:48:00,46.0,28.9,29.53,SW,236,11.0,19.9,51,0.00,,,0.01,meteobridge,2014-01-26 20:48:00,
2014-01-26 15:53:00,45.9,29.3,29.53,WSW,248,11.0,11.0,52,0.00,,,0.01,meteobridge,2014-01-26 20:53:00,
2014-01-26 15:58:00,45.9,29.3,29.53,WSW,239,10.1,15.0,52,0.00,,,0.01,meteobridge,2014-01-26 20:58:00,
2014-01-26 16:03:00,45.9,29.3,29.53,South,184,12.1,16.1,52,0.00,,,0.01,meteobridge,2014-01-26 21:03:00,
2014-01-26 16:08:00,46.0,29.8,29.53,West,281,13.0,17.0,53,0.00,,,0.01,meteobridge,2014-01-26 21:08:00,
2014-01-26 16:13:00,46.0,29.8,29.53,West,259,6.9,17.9,53,0.00,,,0.01,meteobridge,2014-01-26 21:13:00,
2014-01-26 16:18:00,45.9,30.2,29.53,WNW,285,6.0,10.1,54,0.00,,,0.01,meteobridge,2014-01-26 21:18:00,
2014-01-26 16:23:00,45.9,30.2,29.53,SW,228,6.9,8.9,54,0.00,,,0.01,meteobridge,2014-01-26 21:23:00,
2014-01-26 16:28:00,46.0,30.4,29.53,SSE,162,4.9,6.9,54,0.00,,,0.01,meteobridge,2014-01-26 21:28:00,
2014-01-26 16:33:00,46.2,30.0,29.53,WNW,285,2.9,8.9,53,0.00,,,0.01,meteobridge,2014-01-26 21:33:00,
2014-01-26 16:39:00,46.0,30.4,29.53,WSW,242,6.0,6.0,54,0.00,,,0.01,meteobridge,2014-01-26 21:39:00,
2014-01-26 16:44:00,46.0,30.4,29.53,WNW,296,4.0,6.0,54,0.00,,,0.01,meteobridge,2014-01-26 21:44:00,
2014-01-26 16:49:00,46.6,30.4,29.53,West,266,2.0,6.9,53,0.00,,,0.01,meteobridge,2014-01-26 21:49:00,
2014-01-26 16:54:00,46.6,30.4,29.53,WSW,247,4.0,8.1,53,0.00,,,0.01,meteobridge,2014-01-26 21:54:00,
2014-01-26 16:59:00,46.2,30.9,29.53,WSW,247,2.9,8.1,55,0.00,,,0.01,meteobridge,2014-01-26 21:59:00,
2014-01-26 17:04:00,45.9,30.6,29.54,WNW,288,6.9,8.1,55,0.00,,,0.01,meteobridge,2014-01-26 22:04:00,
2014-01-26 17:09:00,45.3,30.6,29.54,SW,228,0.9,2.0,56,0.00,,,0.01,meteobridge,2014-01-26 22:09:00,
2014-01-26 17:14:00,44.8,30.6,29.54,South,188,0.9,2.9,57,0.00,,,0.01,meteobridge,2014-01-26 22:14:00,
2014-01-26 17:19:00,43.5,30.6,29.54,SSE,158,0.0,2.0,60,0.00,,,0.01,meteobridge,2014-01-26 22:19:00,
2014-01-26 17:24:00,42.4,30.4,29.54,SW,219,0.9,2.0,62,0.00,,,0.01,meteobridge,2014-01-26 22:24:00,
2014-01-26 17:29:00,41.4,30.0,29.54,SSE,160,0.9,2.0,64,0.00,,,0.01,meteobridge,2014-01-26 22:29:00,
2014-01-26 17:34:00,40.5,30.0,29.54,SSE,155,0.9,2.0,66,0.00,,,0.01,meteobridge,2014-01-26 22:34:00,
2014-01-26 17:39:00,39.9,29.8,29.54,SW,217,2.0,2.0,67,0.00,,,0.01,meteobridge,2014-01-26 22:39:00,
2014-01-26 17:44:00,39.7,30.0,29.54,SSE,155,4.9,6.0,68,0.00,,,0.01,meteobridge,2014-01-26 22:44:00,
2014-01-26 17:49:00,39.9,30.2,29.54,SSW,197,2.9,4.0,68,0.00,,,0.01,meteobridge,2014-01-26 22:49:00,
2014-01-26 17:54:00,39.6,29.8,29.54,SSE,166,4.0,4.9,68,0.00,,,0.01,meteobridge,2014-01-26 22:54:00,
2014-01-26 18:00:00,39.9,30.2,29.54,SSE,167,4.0,4.9,68,0.00,,,0.01,meteobridge,2014-01-26 23:00:00,
2014-01-26 18:05:00,40.3,30.2,29.55,SSE,166,4.9,6.0,67,0.00,,,0.01,meteobridge,2014-01-26 23:05:00,
2014-01-26 18:10:00,40.6,30.6,29.55,SSE,160,4.0,4.9,67,0.00,,,0.01,meteobridge,2014-01-26 23:10:00,
2014-01-26 18:15:00,40.6,30.2,29.55,SSE,168,0.9,4.0,66,0.00,,,0.01,meteobridge,2014-01-26 23:15:00,
2014-01-26 18:20:00,39.6,29.8,29.56,SSE,167,0.0,0.9,68,0.00,,,0.01,meteobridge,2014-01-26 23:20:00,
2014-01-26 18:25:00,38.3,29.3,29.56,SSE,167,0.0,0.0,70,0.00,,,0.01,meteobridge,2014-01-26 23:25:00,
2014-01-26 18:30:00,37.4,28.9,29.56,SSE,166,0.0,0.0,71,0.00,,,0.01,meteobridge,2014-01-26 23:30:00,
2014-01-26 18:35:00,36.5,28.4,29.56,SSE,166,0.0,0.0,72,0.00,,,0.01,meteobridge,2014-01-26 23:35:00,
2014-01-26 18:40:00,36.0,28.8,29.56,SE,133,0.0,0.9,75,0.00,,,0.01,meteobridge,2014-01-26 23:40:00,
2014-01-26 18:45:00,35.2,28.4,29.56,East,98,0.0,0.9,76,0.00,,,0.01,meteobridge,2014-01-26 23:45:00,
2014-01-26 18:50:00,34.5,28.4,29.56,East,98,0.0,0.0,78,0.00,,,0.01,meteobridge,2014-01-26 23:50:00,
2014-01-26 18:55:00,33.6,27.9,29.57,East,97,0.0,0.0,79,0.00,,,0.01,meteobridge,2014-01-26 23:55:00,
2014-01-26 19:00:00,33.1,27.5,29.57,SW,226,0.9,2.0,80,0.00,,,0.01,meteobridge,2014-01-27 00:00:00,
2014-01-26 19:05:00,32.7,27.9,29.57,SW,228,0.0,0.9,82,0.00,,,0.01,meteobridge,2014-01-27 00:05:00,
2014-01-26 19:10:00,33.1,28.4,29.57,West,260,0.0,0.9,83,0.00,,,0.01,meteobridge,2014-01-27 00:10:00,
2014-01-26 19:16:00,33.1,27.9,29.57,SW,226,0.9,2.0,81,0.00,,,0.01,meteobridge,2014-01-27 00:16:00,
2014-01-26 19:21:00,32.7,27.9,29.57,SW,226,0.0,0.0,82,0.00,,,0.01,meteobridge,2014-01-27 00:21:00,
2014-01-26 19:26:00,32.4,27.5,29.56,SW,229,0.9,0.9,82,0.00,,,0.01,meteobridge,2014-01-27 00:26:00,
2014-01-26 19:31:00,32.2,27.3,29.56,NNE,22,0.0,0.0,82,0.00,,,0.01,meteobridge,2014-01-27 00:31:00,
2014-01-26 19:36:00,31.8,27.3,29.56,NNE,23,0.0,0.9,83,0.00,,,0.01,meteobridge,2014-01-27 00:36:00,
2014-01-26 19:41:00,31.5,27.1,29.56,NNE,23,0.0,0.0,84,0.00,,,0.01,meteobridge,2014-01-27 00:41:00,
2014-01-26 19:46:00,30.9,27.0,29.55,NNE,23,0.9,0.9,85,0.00,,,0.01,meteobridge,2014-01-27 00:46:00,
2014-01-26 19:52:00,30.6,27.0,29.55,NNE,23,0.0,0.0,86,0.00,,,0.01,meteobridge,2014-01-27 00:52:00,
2014-01-26 19:57:00,30.7,27.3,29.55,NNE,23,0.0,0.0,87,0.00,,,0.01,meteobridge,2014-01-27 00:57:00,
2014-01-26 20:02:00,30.6,27.1,29.55,NNE,21,0.0,0.9,87,0.00,,,0.01,meteobridge,2014-01-27 01:02:00,
2014-01-26 20:07:00,30.7,27.7,29.55,NNE,22,0.0,0.0,88,0.00,,,0.01,meteobridge,2014-01-27 01:07:00,
2014-01-26 20:13:00,30.6,27.1,29.55,WSW,242,0.0,0.0,87,0.00,,,0.01,meteobridge,2014-01-27 01:13:00,
2014-01-26 20:18:00,30.6,27.1,29.55,WSW,253,0.0,0.0,87,0.00,,,0.01,meteobridge,2014-01-27 01:18:00,
2014-01-26 20:23:00,30.6,27.1,29.55,SW,214,0.0,4.0,87,0.00,,,0.01,meteobridge,2014-01-27 01:23:00,
2014-01-26 20:28:00,30.6,27.5,29.55,SSW,205,2.0,2.9,88,0.00,,,0.01,meteobridge,2014-01-27 01:28:00,
2014-01-26 20:33:00,30.7,27.7,29.55,WSW,239,0.0,0.0,88,0.00,,,0.01,meteobridge,2014-01-27 01:33:00,
2014-01-26 20:38:00,30.9,27.5,29.55,SW,219,0.0,0.9,87,0.00,,,0.01,meteobridge,2014-01-27 01:38:00,
2014-01-26 20:43:00,31.1,27.7,29.55,North,355,0.0,2.0,87,0.00,,,0.01,meteobridge,2014-01-27 01:43:00,
2014-01-26 20:48:00,31.3,27.9,29.55,North,355,0.0,0.0,87,0.00,,,0.01,meteobridge,2014-01-27 01:48:00,
2014-01-26 20:53:00,30.9,27.5,29.55,North,354,0.0,0.9,87,0.00,,,0.01,meteobridge,2014-01-27 01:53:00,
2014-01-26 20:58:00,30.9,27.5,29.55,North,355,0.0,0.0,87,0.00,,,0.01,meteobridge,2014-01-27 01:58:00,
2014-01-26 21:04:00,30.7,27.3,29.55,North,354,0.0,0.0,87,0.00,,,0.01,meteobridge,2014-01-27 02:04:00,
2014-01-26 21:09:00,30.6,27.1,29.55,NNW,348,0.0,0.0,87,0.00,,,0.01,meteobridge,2014-01-27 02:09:00,
2014-01-26 21:14:00,30.4,27.0,29.55,NNW,347,0.0,0.9,87,0.00,,,0.01,meteobridge,2014-01-27 02:14:00,
2014-01-26 21:19:00,30.6,27.5,29.55,NNW,347,0.0,0.0,88,0.00,,,0.01,meteobridge,2014-01-27 02:19:00,
2014-01-26 21:24:00,30.7,27.7,29.56,NNW,332,0.0,0.9,88,0.00,,,0.01,meteobridge,2014-01-27 02:24:00,
2014-01-26 21:29:00,30.7,27.3,29.56,SW,217,0.0,0.9,87,0.00,,,0.01,meteobridge,2014-01-27 02:29:00,
2014-01-26 21:34:00,30.7,27.3,29.56,WSW,239,0.0,0.9,87,0.00,,,0.01,meteobridge,2014-01-27 02:34:00,
2014-01-26 21:39:00,31.1,28.0,29.56,WNW,284,0.0,0.9,88,0.00,,,0.01,meteobridge,2014-01-27 02:39:00,
2014-01-26 21:44:00,31.3,27.9,29.55,NW,326,0.0,0.0,87,0.00,,,0.01,meteobridge,2014-01-27 02:44:00,
2014-01-26 21:49:00,30.9,27.5,29.55,NW,326,0.0,0.0,87,0.00,,,0.01,meteobridge,2014-01-27 02:49:00,
2014-01-26 21:54:00,30.7,27.3,29.55,NE,39,0.0,0.0,87,0.00,,,0.01,meteobridge,2014-01-27 02:54:00,
2014-01-26 21:59:00,30.4,27.0,29.55,NE,39,0.0,0.0,87,0.00,,,0.01,meteobridge,2014-01-27 02:59:00,
2014-01-26 22:05:00,30.0,26.6,29.54,NE,41,0.0,0.0,87,0.00,,,0.01,meteobridge,2014-01-27 03:05:00,
2014-01-26 22:10:00,29.8,26.4,29.54,NE,41,0.0,0.0,87,0.00,,,0.01,meteobridge,2014-01-27 03:10:00,
2014-01-26 22:15:00,29.7,26.6,29.54,NE,40,0.0,0.0,88,0.00,,,0.01,meteobridge,2014-01-27 03:15:00,
2014-01-26 22:20:00,29.7,26.8,29.54,SSW,197,0.0,0.0,89,0.00,,,0.01,meteobridge,2014-01-27 03:20:00,
2014-01-26 22:25:00,29.3,26.2,29.54,SSW,208,0.0,0.0,88,0.00,,,0.01,meteobridge,2014-01-27 03:25:00,
2014-01-26 22:30:00,29.1,26.2,29.54,SSW,208,0.0,0.0,89,0.00,,,0.01,meteobridge,2014-01-27 03:30:00,
2014-01-26 22:35:00,29.1,26.2,29.54,SSW,208,0.0,0.0,89,0.00,,,0.01,meteobridge,2014-01-27 03:35:00,
2014-01-26 22:40:00,29.1,26.6,29.55,SSW,207,0.0,0.0,90,0.00,,,0.01,meteobridge,2014-01-27 03:40:00,
2014-01-26 22:45:00,29.5,27.0,29.55,West,261,0.0,0.0,90,0.00,,,0.01,meteobridge,2014-01-27 03:45:00,
2014-01-26 22:51:00,29.7,27.1,29.54,West,260,0.0,0.0,90,0.00,,,0.01,meteobridge,2014-01-27 03:51:00,
2014-01-26 22:56:00,29.7,26.8,29.54,WSW,253,0.0,0.0,89,0.00,,,0.01,meteobridge,2014-01-27 03:56:00,
2014-01-26 23:01:00,29.5,26.6,29.54,WSW,249,0.0,0.0,89,0.00,,,0.01,meteobridge,2014-01-27 04:01:00,
2014-01-26 23:06:00,29.3,26.4,29.54,SW,215,0.0,0.0,89,0.00,,,0.01,meteobridge,2014-01-27 04:06:00,
2014-01-26 23:11:00,29.3,26.4,29.54,SW,217,0.0,0.0,89,0.00,,,0.01,meteobridge,2014-01-27 04:11:00,
2014-01-26 23:16:00,29.5,27.0,29.54,West,277,0.0,0.0,90,0.00,,,0.01,meteobridge,2014-01-27 04:16:00,
2014-01-26 23:21:00,29.7,27.1,29.54,WSW,255,0.0,0.0,90,0.00,,,0.01,meteobridge,2014-01-27 04:21:00,
2014-01-26 23:27:00,29.7,27.1,29.54,SSW,209,0.0,0.0,90,0.00,,,0.01,meteobridge,2014-01-27 04:27:00,
2014-01-26 23:32:00,29.7,27.1,29.55,SW,221,0.0,0.0,90,0.00,,,0.01,meteobridge,2014-01-27 04:32:00,
2014-01-26 23:37:00,29.7,27.1,29.55,SSW,210,0.0,0.0,90,0.00,,,0.01,meteobridge,2014-01-27 04:37:00,
2014-01-26 23:43:00,29.7,27.1,29.55,SSW,210,0.0,0.0,90,0.00,,,0.01,meteobridge,2014-01-27 04:43:00,
2014-01-26 23:48:00,29.7,27.1,29.55,SSW,210,0.0,0.0,90,0.00,,,0.01,meteobridge,2014-01-27 04:48:00,
2014-01-26 23:53:00,29.8,27.3,29.55,SSE,155,0.0,0.9,90,0.00,,,0.01,meteobridge,2014-01-27 04:53:00,
2014-01-26 23:58:00,30.0,27.5,29.55,SSE,157,0.0,0.0,90,0.00,,,0.01,meteobridge,2014-01-27 04:58:00,